Location: Shades State Park
(39.9310°N, 87.0690°W)
Time: 07:09:04
(UTC-05:00)

ISS - Visible Passes

Search period start: 12 February 2016 00:00
Search period end: 22 February 2016 00:00
Orbit: 398 x 408 km, 51.6° (Epoch: 11 February)

Date Brightness Start Highest point End Pass type
(mag) Time Alt. Az. Time Alt. Az. Time Alt. Az.
12 Feb -0.7 20:08:32 10° NNW 20:09:22 13° N 20:09:22 13° N visible
13 Feb -1.0 19:16:03 10° NNW 19:17:33 12° NNE 19:18:51 10° NE visible
14 Feb -1.5 19:59:05 10° NNW 20:01:00 21° N 20:01:00 21° N visible
15 Feb -1.4 19:06:33 10° NNW 19:08:45 17° NNE 19:10:33 12° NE visible
15 Feb -0.5 20:42:21 10° NW 20:43:11 17° NW 20:43:11 17° NW visible
16 Feb -2.9 19:49:37 10° NW 19:52:44 43° NNE 19:52:48 43° NE visible
17 Feb -2.1 18:56:55 10° NNW 18:59:44 26° NNE 19:02:31 10° E visible
17 Feb -1.3 20:33:11 10° WNW 20:35:10 28° W 20:35:10 28° W visible
18 Feb -3.4 19:40:10 10° NW 19:43:24 81° SW 19:45:00 27° SE visible
19 Feb -0.7 20:24:31 10° W 20:26:36 16° SW 20:27:42 14° SSW visible
20 Feb -1.6 19:30:53 10° WNW 19:33:49 31° SW 19:36:43 10° SSE visible
